GW4676 Weather Reports


time (UTC)temp
C
wind
direction
speed
KPH
gust
KPH
rain 1hr
cm
rain 24hr
cm
rain mn
cm
humidity
%
barometer
mb
20260510044551 10 226 4.8 14.5 0.03 0.56 0.03 94 1009.4
20260510043042 10 214 4.8 11.3 0.05 0.56 0.03 93 1008.6
20260510041548 10 204 6.4 14.5 0.05 0.56 0.03 93 1008.7
20260510034557 10 211 6.4 14.5 0.05 0.56 0.53 94 1008.6
20260510033046 10 191 6.4 11.3 0.03 0.53 0.51 95 1008.4
20260510031600 10 212 8.0 12.9 0.03 0.53 0.51 95 1008.7
20260510030052 10 166 4.8 11.3 0.05 0.53 0.51 95 1008.6
20260510024548 10 0 0.0 6.4 0.03 0.56 0.48 94 1009.3
20260510023047 10 250 1.6 6.4 0.03 0.56 0.48 94 1009.7
20260510021543 10 302 3.2 14.5 0.03 0.56 0.48 93 1009.7
20260510020039 10 260 4.8 20.9 0.00 0.53 0.46 92 1009.7
20260510014547 11 291 11.3 37.0 0.00 0.56 0.46 88 1008.9
20260510013050 15 286 4.8 11.3 0.00 0.56 0.46 72 1008.4
20260510011546 15 254 4.8 14.5 0.00 0.56 0.46 68 1007.5
20260510010041 15 241 6.4 14.5 0.00 0.56 0.46 69 1006.8
20260510004542 15 240 6.4 12.9 0.00 0.56 0.46 69 1006.6
20260510003039 15 191 4.8 14.5 0.00 0.56 0.46 70 1006.3
20260510001538 15 172 4.8 14.5 0.00 0.56 0.46 69 1006.4
20260510000044 15 186 4.8 8.0 0.00 0.56 0.46 69 1006.3
20260509234541 16 232 8.0 24.1 0.00 0.58 0.46 66 1006.3
20260509233043 16 227 17.7 27.4 0.00 0.58 0.46 65 1006.3
20260509231555 16 226 11.3 27.4 0.00 0.58 0.46 64 1006.1
20260509230035 16 191 9.7 24.1 0.00 0.58 0.46 65 1005.9
20260509224547 16 226 16.1 30.6 0.03 0.58 0.46 64 1005.7
20260509223046 16 222 11.3 20.9 0.03 0.58 0.46 66 1005.8
20260509221542 16 221 11.3 22.5 0.03 0.58 0.46 68 1005.7
20260509220041 16 229 12.9 25.7 0.03 0.58 0.46 68 1006.0
20260509214545 16 211 14.5 25.7 0.00 0.56 0.43 68 1006.0
20260509213051 16 186 11.3 24.1 0.00 0.56 0.43 70 1006.2
20260509211549 16 209 20.9 32.2 0.00 0.56 0.43 66 1006.3
20260509210053 16 221 16.1 25.7 0.03 0.56 0.43 71 1006.2
20260509204553 16 213 11.3 24.1 0.03 0.56 0.43 72 1006.4
20260509203050 16 246 12.9 27.4 0.03 0.56 0.43 73 1006.5
20260509201545 15 254 12.9 24.1 0.03 0.56 0.43 75 1006.9
20260509200101 15 214 12.9 24.1 0.03 0.53 0.41 77 1006.8
20260509194546 15 182 11.3 25.7 0.03 0.71 0.41 80 1007.1
20260509193053 14 182 11.3 20.9 0.03 0.71 0.41 81 1007.2
20260509191542 13 207 11.3 22.5 0.03 0.71 0.41 84 1007.4
20260509190054 13 227 8.0 17.7 0.03 0.69 0.38 87 1007.5
20260509184624 13 219 11.3 19.3 0.03 0.69 0.38 88 1007.5
20260509183047 12 165 8.0 14.5 0.03 0.69 0.38 91 1007.8
20260509181548 12 194 6.4 17.7 0.03 0.69 0.38 92 1007.7
20260509180046 12 188 11.3 17.7 0.03 0.66 0.36 92 1007.7
20260509174549 11 211 6.4 17.7 0.03 0.66 0.36 93 1007.8
20260509173042 11 190 9.7 17.7 0.03 0.66 0.36 95 1007.8
20260509171546 11 250 9.7 17.7 0.03 0.66 0.36 96 1007.8
20260509170048 11 219 9.7 17.7 0.03 0.64 0.33 97 1007.6
20260509164544 10 232 11.3 17.7 0.03 0.64 0.33 97 1007.8
20260509163105 10 215 12.9 27.4 0.03 0.64 0.33 97 1007.8
20260509161547 10 211 12.9 24.1 0.03 0.64 0.33 98 1007.7
20260509160049 10 236 12.9 20.9 0.03 0.61 0.30 98 1007.6
20260509154548 10 232 12.9 20.9 0.03 0.61 0.30 98 1007.4
20260509153044 10 233 9.7 19.3 0.03 0.61 0.30 98 1007.5
20260509151555 9 220 12.9 22.5 0.03 0.61 0.30 98 1007.6
20260509150042 9 227 9.7 20.9 0.03 0.58 0.28 98 1007.6
20260509144542 9 215 9.7 19.3 0.03 0.58 0.28 98 1007.6
20260509143046 9 230 9.7 17.7 0.03 0.58 0.28 98 1007.6
20260509141555 9 223 11.3 19.3 0.03 0.58 0.28 97 1007.5
20260509140057 9 235 11.3 22.5 0.03 0.56 0.25 97 1007.6
20260509134542 9 206 11.3 22.5 0.03 0.56 0.25 97 1007.7
20260509133041 9 235 8.0 19.3 0.03 0.56 0.25 97 1007.6
20260509131548 8 239 11.3 17.7 0.03 0.56 0.25 97 1007.6
20260509130050 8 204 8.0 20.9 0.03 0.53 0.23 97 1007.8
20260509124548 8 199 6.4 20.9 0.03 0.53 0.23 97 1007.8
20260509123054 8 203 8.0 14.5 0.03 0.53 0.23 97 1007.9
20260509121547 8 199 9.7 20.9 0.03 0.53 0.23 97 1008.1
20260509120048 8 186 8.0 12.9 0.03 0.51 0.20 97 1008.0
20260509114544 8 201 4.8 8.0 0.03 0.51 0.20 97 1007.9
20260509113104 7 192 3.2 4.8 0.03 0.51 0.20 97 1007.9
20260509111547 7 153 1.6 9.7 0.03 0.51 0.20 97 1007.9
20260509110041 7 0 0.0 0.0 0.03 0.48 0.18 97 1007.8
20260509104556 7 0 0.0 0.0 0.03 0.48 0.18 97 1008.0
20260509103055 7 0 0.0 3.2 0.03 0.48 0.18 97 1008.2
20260509101545 7 0 0.0 0.0 0.03 0.48 0.18 97 1008.1
20260509100059 7 0 0.0 0.0 0.03 0.46 0.15 97 1008.3
20260509094553 7 0 0.0 0.0 0.03 0.46 0.15 97 1008.4
20260509093048 7 0 0.0 0.0 0.03 0.46 0.15 97 1008.6
20260509091602 7 0 0.0 0.0 0.03 0.46 0.15 97 1008.6
20260509090044 7 0 0.0 0.0 0.00 0.43 0.13 97 1008.5
20260509084541 7 0 0.0 0.0 0.00 0.43 0.13 97 1008.5
20260509083044 7 0 0.0 0.0 0.03 0.43 0.13 97 1008.3
20260509081556 7 0 0.0 0.0 0.03 0.43 0.13 97 1008.6
20260509080050 7 0 0.0 0.0 0.03 0.43 0.13 97 1008.6
20260509074546 7 0 0.0 0.0 0.03 0.43 0.13 97 1008.5
20260509073045 7 0 0.0 3.2 0.00 0.41 0.10 97 1008.5
20260509071548 7 0 0.0 1.6 0.03 0.41 0.10 97 1008.3
20260509070041 7 71 1.6 3.2 0.03 0.41 0.10 97 1008.5
20260509064550 7 0 0.0 0.0 0.03 0.41 0.10 97 1008.6
20260509063054 7 0 0.0 3.2 0.05 0.41 0.10 96 1009.0
20260509061605 7 69 1.6 4.8 0.03 0.38 0.08 96 1009.1
20260509060047 7 74 3.2 4.8 0.03 0.38 0.08 96 1009.3
20260509054557 7 44 3.2 9.7 0.05 0.38 0.08 96 1009.4
20260509053058 7 72 4.8 6.4 0.03 0.36 0.05 96 1009.6
20260509051549 7 76 4.8 6.4 0.03 0.36 0.05 96 1009.8
20260509050044 7 0 0.0 0.0 0.05 0.36 0.05 96 1010.3